Weather History for Zapata, TX

Change the Weather History Date:

Wednesday, June 19, 2013

  Actual Average (KLRD) Record (KLRD)
Temperature  
Mean Temperature 88 °F 87 °F  
Max Temperature 99 °F 99 °F 112 °F (2011)
Min Temperature 76 °F 76 °F 60 °F (1912)
Degree Days  
Heating Degree Days 0 0  
Month to date heating degree days 0  
Since 1 June heating degree days 0  
Since 1 July heating degree days 926  
Cooling Degree Days 22 22  
Month to date cooling degree days 411  
Year to date cooling degree days 1554  
Since 1 June cooling degree days 411  
Growing Degree Days 38 (Base 50)    
Moisture  
Dew Point 64 °F    
Average Humidity 50    
Maximum Humidity 81    
Minimum Humidity 25    
Precipitation  
Precipitation 0.00 in 0.09 in 2.35 in (1985)
Month to date precipitation 1.35  
Year to date precipitation 8.22  
Sea Level Pressure  
Sea Level Pressure 29.90 in    
Wind  
Wind Speed 11 mph (SE)    
Max Wind Speed 18 mph    
Max Gust Speed 25 mph    
Visibility 10 miles    
Events      
T = Trace of Precipitation, MM = Missing Value Source: NWS Daily Summary

Daily Weather History Graph

Daily Weather History Graph

Search for Another Location

Airport:

Trip Planner

Search our weather history database for the weather conditions in past years. The results will help you decide how hot, cold, wet, or windy it might be!

Date:

Astronomy

Jun. 19, 2013 Rise Set
Actual Time 6:43 AM CDT 8:33 PM CDT
Civil Twilight 6:16 AM CDT 9:00 PM CDT
Nautical Twilight 5:45 AM CDT 9:31 PM CDT
Astronomical Twilight 5:11 AM CDT 10:05 PM CDT
Moon 4:41 PM CDT (6/19) 3:12 AM CDT (6/19)
Length of Visible Light 14h 43m
Length of Day
13h 50m
Waxing Gibbous, 80% of the Moon is Illuminated
Jun 19
Waxing Gibbous
Jun 23
Full
Jun 29
Last Quarter
Jul 8
New
Jul 15
First Quarter

Hourly Weather History & Observations

Time (CDT) Temp. Heat Index Dew Point Humidity Pressure Visibility Wind Dir Wind Speed Gust Speed Precip Events Conditions
12:15 AM 83.3 °F 85.3 °F 65.7 °F 55% 29.91 in 10.0 mi SE 12.7 mph 19.6 mph N/A   Clear
12:35 AM 82.6 °F 85.1 °F 66.7 °F 59% 29.92 in 10.0 mi SE 11.5 mph 20.7 mph N/A   Clear
12:55 AM 81.5 °F 84.1 °F 67.5 °F 62% 29.92 in 10.0 mi SSE 6.9 mph 16.1 mph N/A   Clear
1:15 AM 80.6 °F 82.9 °F 66.9 °F 63% 29.92 in 10.0 mi SE 11.5 mph 19.6 mph N/A   Clear
1:35 AM 80.2 °F 82.7 °F 67.5 °F 65% 29.92 in 10.0 mi SE 11.5 mph 19.6 mph N/A   Clear
1:55 AM 79.7 °F - 68.2 °F 68% 29.92 in 10.0 mi SE 11.5 mph 16.1 mph N/A   Clear
2:15 AM 79.5 °F - 69.1 °F 70% 29.92 in 10.0 mi SE 13.8 mph 20.7 mph N/A   Scattered Clouds
2:35 AM 79.2 °F - 69.4 °F 72% 29.91 in 10.0 mi SE 9.2 mph 16.1 mph N/A   Scattered Clouds
2:55 AM 78.8 °F - 69.8 °F 74% 29.91 in 10.0 mi SE 10.4 mph - N/A   Clear
3:15 AM 78.4 °F - 69.8 °F 75% 29.90 in 10.0 mi SE 8.1 mph - N/A   Clear
3:35 AM 78.1 °F - 69.8 °F 76% 29.90 in 10.0 mi SE 6.9 mph - N/A   Clear
3:55 AM 77.9 °F - 69.8 °F 76% 29.89 in 10.0 mi SE 6.9 mph - N/A   Clear
4:15 AM 77.9 °F - 69.8 °F 76% 29.89 in 10.0 mi SE 8.1 mph - N/A   Clear
4:35 AM 77.4 °F - 69.8 °F 77% 29.89 in 10.0 mi SE 8.1 mph - N/A   Clear
4:55 AM 77.4 °F - 69.8 °F 77% 29.88 in 10.0 mi SE 8.1 mph - N/A   Clear
5:15 AM 77.2 °F - 70.0 °F 78% 29.88 in 10.0 mi SE 8.1 mph - N/A   Clear
5:35 AM 76.8 °F - 69.8 °F 79% 29.88 in 10.0 mi ESE 6.9 mph - N/A   Clear
5:55 AM 76.6 °F - 70.0 °F 80% 29.89 in 10.0 mi SE 6.9 mph - N/A   Clear
6:15 AM 76.3 °F - 70.2 °F 81% 29.89 in 10.0 mi ESE 6.9 mph - N/A   Clear
6:35 AM 76.3 °F - 70.2 °F 81% 29.89 in 10.0 mi SE 8.1 mph - N/A   Clear
6:55 AM 76.5 °F - 70.2 °F 81% 29.90 in 10.0 mi ESE 5.8 mph - N/A   Clear
7:15 AM 77.0 °F - 70.0 °F 79% 29.91 in 10.0 mi SE 6.9 mph - N/A   Clear
7:35 AM 77.9 °F - 69.8 °F 76% 29.91 in 10.0 mi SE 6.9 mph - N/A   Clear
7:55 AM 78.8 °F - 69.8 °F 74% 29.92 in 10.0 mi SE 8.1 mph - N/A   Clear
8:15 AM 79.9 °F - 69.8 °F 71% 29.92 in 10.0 mi SE 9.2 mph - N/A   Clear
8:35 AM 81.0 °F 84.4 °F 69.8 °F 69% 29.93 in 10.0 mi SSE 9.2 mph - N/A   Clear
8:55 AM 81.7 °F 85.1 °F 69.4 °F 66% 29.93 in 10.0 mi SE 9.2 mph 19.6 mph N/A   Clear
9:15 AM 82.8 °F 86.2 °F 69.1 °F 63% 29.93 in 10.0 mi SSE 10.4 mph 19.6 mph N/A   Clear
9:35 AM 84.2 °F 87.6 °F 68.4 °F 59% 29.93 in 10.0 mi SSE 10.4 mph 16.1 mph N/A   Clear
9:55 AM 85.1 °F 87.9 °F 67.1 °F 55% 29.93 in 10.0 mi SSE 11.5 mph 16.1 mph N/A   Clear
10:15 AM 86.4 °F 89.4 °F 67.3 °F 53% 29.93 in 10.0 mi SSE 12.7 mph 17.3 mph N/A   Clear
10:35 AM 87.4 °F 88.8 °F 64.6 °F 46% 29.93 in 10.0 mi SSE 15.0 mph 24.2 mph N/A   Clear
10:55 AM 88.3 °F 89.9 °F 64.6 °F 45% 29.93 in 10.0 mi SSE 16.1 mph 23.0 mph N/A   Clear
11:15 AM 89.1 °F 90.3 °F 63.7 °F 43% 29.93 in 10.0 mi South 12.7 mph 21.9 mph N/A   Clear
11:35 AM 89.8 °F 91.0 °F 63.9 °F 42% 29.94 in 10.0 mi SSE 12.7 mph 20.7 mph N/A   Clear
11:55 AM 90.7 °F 91.3 °F 62.8 °F 39% 29.93 in 10.0 mi SSE 16.1 mph 19.6 mph N/A   Clear
12:15 PM 91.4 °F 91.7 °F 61.9 °F 37% 29.92 in 10.0 mi South 16.1 mph 20.7 mph N/A   Clear
12:35 PM 92.7 °F 92.9 °F 61.3 °F 35% 29.91 in 10.0 mi SSE 13.8 mph 21.9 mph N/A   Clear
12:55 PM 93.9 °F 94.0 °F 60.4 °F 33% 29.91 in 10.0 mi SSE 12.7 mph 21.9 mph N/A   Clear
1:15 PM 94.6 °F 93.5 °F 58.1 °F 29% 29.90 in 10.0 mi South 13.8 mph 20.7 mph N/A   Clear
1:35 PM 95.2 °F 94.3 °F 57.9 °F 29% 29.89 in 10.0 mi SSE 15.0 mph 21.9 mph N/A   Clear
1:55 PM 95.4 °F 94.2 °F 57.6 °F 28% 29.88 in 10.0 mi South 15.0 mph 20.7 mph N/A   Clear
2:15 PM 96.6 °F 96.4 °F 59.7 °F 29% 29.87 in 10.0 mi ESE 10.4 mph 19.6 mph N/A   Clear
2:35 PM 97.0 °F 96.9 °F 59.4 °F 29% 29.87 in 10.0 mi SSE 10.4 mph 17.3 mph N/A   Clear
2:55 PM 97.7 °F 97.6 °F 59.2 °F 28% 29.86 in 10.0 mi SE 11.5 mph 20.7 mph N/A   Clear
3:15 PM 98.2 °F 97.9 °F 59.4 °F 27% 29.85 in 10.0 mi ESE 13.8 mph 20.7 mph N/A   Clear
3:35 PM 97.9 °F 97.4 °F 58.3 °F 27% 29.85 in 10.0 mi SE 13.8 mph 18.4 mph N/A   Clear
3:55 PM 98.2 °F 97.1 °F 57.0 °F 25% 29.85 in 10.0 mi South 13.8 mph - N/A   Clear
4:15 PM 99.0 °F 98.1 °F 57.9 °F 25% 29.84 in 10.0 mi SE 11.5 mph 18.4 mph N/A   Clear
4:35 PM 98.4 °F 97.8 °F 57.9 °F 26% 29.84 in 10.0 mi SE 12.7 mph 19.6 mph N/A   Scattered Clouds
4:55 PM 99.0 °F 98.1 °F 57.7 °F 25% 29.83 in 10.0 mi SSE 12.7 mph 18.4 mph N/A   Scattered Clouds
5:15 PM 98.2 °F 97.9 °F 58.8 °F 27% 29.83 in 10.0 mi SE 12.7 mph 19.6 mph N/A   Mostly Cloudy
5:35 PM 98.6 °F 98.0 °F 57.7 °F 26% 29.82 in 10.0 mi SE 11.5 mph 18.4 mph N/A   Scattered Clouds
5:55 PM 97.9 °F 97.0 °F 57.9 °F 26% 29.82 in 10.0 mi SSE 12.7 mph 19.6 mph N/A   Clear
6:15 PM 97.0 °F 96.1 °F 58.3 °F 27% 29.82 in 10.0 mi SE 13.8 mph 20.7 mph N/A   Clear
6:35 PM 97.0 °F 96.5 °F 58.5 °F 28% 29.82 in 10.0 mi SE 13.8 mph 19.6 mph N/A   Clear
6:55 PM 95.9 °F 95.3 °F 58.6 °F 29% 29.83 in 10.0 mi SE 18.4 mph 25.3 mph N/A   Clear
7:15 PM 95.2 °F 93.9 °F 57.7 °F 28% 29.84 in 10.0 mi ESE 15.0 mph 23.0 mph N/A   Clear
7:35 PM 94.3 °F 93.0 °F 57.7 °F 29% 29.85 in 10.0 mi SE 13.8 mph 21.9 mph N/A   Clear
7:55 PM 93.2 °F 91.9 °F 57.6 °F 30% 29.85 in 10.0 mi SE 15.0 mph 21.9 mph N/A   Clear
8:15 PM 91.9 °F 90.8 °F 58.3 °F 32% 29.87 in 10.0 mi SE 12.7 mph 23.0 mph N/A   Clear
8:35 PM 90.7 °F 90.7 °F 61.3 °F 37% 29.88 in 10.0 mi SE 17.3 mph 25.3 mph N/A   Clear
8:55 PM 89.6 °F 89.8 °F 61.9 °F 39% 29.89 in 10.0 mi SE 17.3 mph 23.0 mph N/A   Clear
9:15 PM 88.7 °F 89.4 °F 62.6 °F 42% 29.91 in 10.0 mi SE 12.7 mph 20.7 mph N/A   Clear
9:35 PM 87.6 °F 88.5 °F 63.1 °F 44% 29.91 in 10.0 mi SE 15.0 mph 21.9 mph N/A   Clear
9:55 PM 86.9 °F 87.8 °F 63.0 °F 45% 29.92 in 10.0 mi SE 13.8 mph 20.7 mph N/A   Clear
10:15 PM 86.0 °F 86.6 °F 62.6 °F 45% 29.93 in 10.0 mi SE 11.5 mph 23.0 mph N/A   Clear
10:35 PM 85.3 °F 85.9 °F 62.6 °F 46% 29.95 in 10.0 mi SE 11.5 mph - N/A   Clear
10:55 PM 84.4 °F 85.4 °F 63.5 °F 49% 29.96 in 10.0 mi SE 8.1 mph - N/A   Clear
11:15 PM 84.2 °F 85.6 °F 64.4 °F 51% 29.97 in 10.0 mi SE 11.5 mph 17.3 mph N/A   Clear
11:35 PM 83.3 °F 85.1 °F 65.3 °F 54% 29.97 in 10.0 mi SSE 6.9 mph - N/A   Clear
11:55 PM 82.4 °F 84.2 °F 65.5 °F 56% 29.98 in 10.0 mi SE 10.4 mph - N/A   Clear